BREEZE-M DEB, 43407

Orbit data source: Space-Track

BREEZE-M DEB, 43407 is space debris in HEO originally from a launch on Mon, 15 Apr 2013 UTC launched from the Tyuratam Missile And Space Complex (TTMTR). Debris objects in space refer to the collection of defunct objects orbiting the Earth. Examples of debris include non-operational satellites, rocket bodies, and fragments generated from explosions, collisions, or faulty payload assembly.

Loading next visibility...
Identifier
43407, 2013-014D
Orbit
HEO
Country
Flag of CISCIS
Related business
Manufacturer
Khrunichev
Mission
Spacecraft
Bus & Motor
Unknown
Mass
Unknown
Launch date (UTC)
2013-04-15 (13 years ago)
Launch vehicle
Unknown
Launch site
Tyuratam Missile And Space Complex (TTMTR)
Object type
Payload
Rocket body
Debris
Shape & HBR
Unknown shape, 1.1 m
Radar Cross Section
Small (<0.1 m²)

Expand to show TLE details & history
Last TLE update: 1 day ago

TLE from 1 day ago
0 BREEZE-M DEB
1 43407U 13014D   25346.41312049 -.00000140  00000-0  00000-0 0  9997
2 43407  15.4988  12.0731 4834602 195.1405 142.6704  1.91517219 71784
Epoch: 2025-12-12T09:54Z
TLE epoch observation values (Epoch: 2025-12-12T09:54:53.610Z)
Latitude
-0.00001°
Longitude
141.99499°
Altitude
32,953.619 km
Speed
2.391 km/s
True Right ascension
00h 48m 17s
True Declination
0° 00' 00"
Sunlit
Object was in daylight at epoch
Visualization orbit readout
Latitude
Unknown
Longitude
Unknown
Altitude
Unknown
Speed
Unknown
Apparent Right ascension
Unknown
Apparent Declination
Unknown
Sunlit
N/A
Visualization observer readout
Local Sidereal Time
11:32:40
Azimuth
Unknown
Elevation
Unknown
Doppler factor
Unknown
Orbital elements
Apogee altitude
34,257.468 km
Perigee altitude
7,771.152 km
Semi-major axis
27,392.447 km
Eccentricity
0.48346
Inclination
15.4988°
RAAN
12.0731°
Arg. of periapsis
195.1405°
True anomaly
164.83°
Mean anomaly
142.6704°
Eccentric anomaly
154.56659°
Mean motion
0.47874 °/min
Orbital period
751.98 mins
BSTAR
0
Loading maneuver chart data...
Computing Atmospheric mass density...
Loading historical data...
Loading historical data...
Loading historical data...
Loading historical data...
Loading historical data...
Loading historical data...
Loading historical data...
Other satellites on launch #14 in the year 2013 (2013-04-15 UTC)

Documentation

Showing up to 5 results
|